Flight Track Log - Related Links

Times and Time Zones

All times are in EST time to prevent confusion due to time zone crossing. See the AAY861 flight status page for this flight to view local times or setup timezone preferences in your user account.

Time Position Orientation Groundspeed Altitude Reporting Facility
EST Latitude Longitude Course Direction KTS MPH feet Rate Location/Type
Mon 10:03:27 37.6331 -84.5776 177° South 399 459 13,700  Level FlightAware ADS-B
Mon 10:07:59 37.0892 -84.3586 162° South 446 513 23,700 1,928 Climbing FlightAware ADS-B
Mon 10:09:56 36.8841 -84.2775 162° South 472 543 26,200 1,304 Climbing FlightAware ADS-B
Mon 10:11:03 36.7169 -84.2106 162° South 466 536 27,700 1,163 Climbing Indianapolis Center
Mon 10:12:05 36.5872 -84.1603 163° South 480 552 28,700 919 Climbing Indianapolis Center
Mon 10:13:07 36.4692 -84.1142 163° South 492 566 29,600 1,548 Climbing Indianapolis Center
Mon 10:14:09 36.3111 -84.0511 162° South 496 571 31,900 1,632 Climbing Indianapolis Center
Mon 10:15:12 36.1842 -84.0019 163° South 485 558 33,000 430 Climbing Indianapolis Center
Mon 10:21:22 35.3966 -83.7438 163° South 466 536 35,000 454 Climbing FlightAware ADS-B (KDZJ)
Mon 10:22:02 35.3108 -83.7180 166° South 461 531 36,100 975 Climbing FlightAware ADS-B (KDZJ)
Mon 10:22:42 35.2341 -83.6958 167° South 461 531 36,300 675 Climbing FlightAware ADS-B (KDZJ)
Mon 10:23:22 35.1402 -83.6683 167° South 466 536 37,000 420 Climbing FlightAware ADS-B (KDZJ)
Mon 10:24:22 35.0148 -83.6315 166° South 460 529 37,000  Level FlightAware ADS-B (KDZJ)
Mon 10:25:02 34.9308 -83.6070 167° South 462 532 37,000  Level FlightAware ADS-B (KDZJ)
Mon 10:25:42 34.8473 -83.5831 167° South 460 529 37,000 75 Level FlightAware ADS-B (KDZJ)
Mon 10:26:22 34.7641 -83.5589 167° South 460 529 37,100 75 Climbing FlightAware ADS-B (KDZJ)
Mon 10:27:02 34.6794 -83.5342 167° South 466 536 37,100  Level FlightAware ADS-B (KDZJ)
Mon 10:27:42 34.5941 -83.5096 167° South 462 532 37,100 -75 Level FlightAware ADS-B (KDZJ)
Mon 10:28:22 34.5209 -83.4884 167° South 461 531 37,000 -76 Descending FlightAware ADS-B (KDZJ)
Mon 10:29:01 34.4345 -83.4634 167° South 459 528 37,000  Level FlightAware ADS-B (KDZJ)
Mon 10:29:42 34.3461 -83.4381 167° South 450 518 37,000  Level FlightAware ADS-B (KDZJ)
Mon 10:30:22 34.2648 -83.4147 167° South 448 516 37,000 300 Level FlightAware ADS-B (KDZJ)
Mon 10:31:02 34.1905 -83.3935 167° South 446 513 37,400 336 Climbing FlightAware ADS-B (KDZJ)
Mon 10:32:27 34.0178 -83.3469 167° South 462 532 37,700 248 Climbing Atlanta Center
Mon 10:33:27 33.8903 -83.3106 167° South 467 537 38,000 150 Climbing Atlanta Center
Mon 10:34:27 33.7689 -83.2667 163° South 461 531 38,000  Level Atlanta Center
Mon 10:35:27 33.6497 -83.2228 163° South 451 519 38,000  Level Atlanta Center
Mon 10:36:27 33.5136 -83.1792 165° South 451 519 38,000  Level Atlanta Center
Mon 10:37:27 33.3903 -83.1381 164° South 456 525 38,000  Level Atlanta Center
Mon 10:38:27 33.2708 -83.0947 163° South 457 526 38,000  Level Atlanta Center
Mon 10:39:27 33.1494 -83.0564 165° South 457 526 38,000  Level Atlanta Center
Mon 10:40:27 33.0447 -83.0153 162° South 457 526 38,000  Level Atlanta Center
Mon 10:41:27 32.9233 -82.9747 164° South 451 519 38,000  Level Atlanta Center
Mon 10:42:27 32.7894 -82.9294 164° South 451 519 38,000  Level Atlanta Center
Mon 10:43:27 32.6722 -82.8864 163° South 451 519 38,000  Level Atlanta Center
Mon 10:45:31 32.4275 -82.8039 164° South 456 525 38,000  Level Jacksonville Center
Mon 10:46:31 32.3083 -82.7647 164° South 446 513 38,000  Level Jacksonville Center
Mon 10:47:31 32.1914 -82.7256 164° South 441 507 38,000  Level Jacksonville Center
Mon 10:48:31 32.0703 -82.6842 164° South 441 507 38,000  Level Jacksonville Center
Mon 10:49:31 31.9492 -82.6428 164° South 446 513 38,000  Level Jacksonville Center
Mon 10:50:31 31.8322 -82.6042 164° South 451 519 38,000  Level Jacksonville Center
Mon 10:51:31 31.7089 -82.5628 164° South 451 519 38,000  Level Jacksonville Center
Mon 10:52:31 31.5919 -82.5267 165° South 451 519 38,000  Level Jacksonville Center
Mon 10:53:31 31.4728 -82.5103 173° South 445 512 38,000  Level Jacksonville Center
Mon 10:54:31 31.3789 -82.5153 183° South 437 503 38,000  Level Jacksonville Center
Mon 11:00:32 30.6420 -82.5466 183° South 429 494 38,000  Level FlightAware ADS-B
Mon 11:01:22 30.5412 -82.5495 181° South 437 503 38,000  Level FlightAware ADS-B
Mon 11:01:43 30.5002 -82.5404 169° South 457 526 38,000  Level FlightAware ADS-B
Mon 11:02:01 30.4641 -82.5231 158° South 478 550 38,000  Level FlightAware ADS-B
Mon 11:02:23 30.4236 -82.4907 145° Southeast 483 556 38,000 -346 Level FlightAware ADS-B
Mon 11:02:53 30.3744 -82.4362 136° Southeast 478 550 37,700 -771 Descending FlightAware ADS-B
Mon 11:03:33 30.3100 -82.3709 139° Southeast 451 519 37,100 -600 Descending FlightAware ADS-B
Mon 11:04:03 30.2535 -82.3472 160° South 427 491 37,000 -98 Descending FlightAware ADS-B
Mon 11:04:34 30.1938 -82.3452 178° South 409 471 37,000  Level FlightAware ADS-B
Mon 11:05:04 30.1371 -82.3465 181° South 412 474 37,000 -696 Level FlightAware ADS-B
Mon 11:05:43 30.0605 -82.3479 181° South 422 486 36,200 -1,371 Descending FlightAware ADS-B
Mon 11:06:14 30.0001 -82.3488 181° South 416 479 35,400 -2,366 Descending FlightAware ADS-B
Mon 11:06:54 29.9249 -82.3505 181° South 414 476 33,400 -3,171 Descending FlightAware ADS-B
Mon 11:07:24 29.8667 -82.3522 181° South 421 484 31,700 -2,829 Descending FlightAware ADS-B
Mon 11:08:04 29.7932 -82.3537 181° South 414 476 30,100 -2,914 Descending FlightAware ADS-B
Mon 11:08:34 29.7297 -82.3551 181° South 420 483 28,300 -3,000 Descending FlightAware ADS-B
Mon 11:09:14 29.6535 -82.3566 181° South 415 478 26,600 -1,971 Descending FlightAware ADS-B
Mon 11:09:44 29.6000 -82.3578 181° South 416 479 26,000 -456 Descending FlightAware ADS-B
Mon 11:10:33 29.5033 -82.3481 175° South 420 483 26,000  Level FlightAware ADS-B
Mon 11:11:03 29.4414 -82.3407 174° South 417 480 26,000 -1,522 Level FlightAware ADS-B
Mon 11:11:40 29.3709 -82.3322 174° South 420 483 24,300 -2,957 Descending FlightAware ADS-B
Mon 11:12:12 29.3089 -82.3248 174° South 422 486 22,600 -3,238 Descending FlightAware ADS-B
Mon 11:12:43 29.2481 -82.3175 174° South 428 493 20,900 -2,903 Descending FlightAware ADS-B
Mon 11:13:14 29.1868 -82.3101 174° South 421 484 19,600 -2,364 Descending FlightAware ADS-B
Mon 11:14:22 29.0574 -82.2946 174° South 398 458 17,000 -2,160 Descending FlightAware ADS-B
Mon 11:14:54 29.0066 -82.2885 174° South 390 449 16,000 -1,935 Descending FlightAware ADS-B
Mon 11:15:24 28.9511 -82.2818 174° South 381 438 15,000 -1,800 Descending FlightAware ADS-B
Mon 11:16:14 28.8599 -82.2711 174° South 362 417 13,600 -783 Descending FlightAware ADS-B
Mon 11:18:05 28.6879 -82.2561 176° South 318 366 12,900 -667 Descending FlightAware ADS-B
Mon 11:19:23 28.6000 -82.3000 176° South 280 322 11,500 -1,173 Descending Tampa TRACON
Mon 11:20:18 28.5667 -82.3667 240° Southwest 274 315 10,300 -842 Descending Tampa TRACON
Mon 11:21:17 28.5333 -82.4500 246° West 278 320 9,900 -950 Descending Tampa TRACON
Mon 11:22:18 28.5000 -82.5333 246° West 275 316 8,400 -1,537 Descending Tampa TRACON
Mon 11:23:18 28.4667 -82.6000 240° Southwest 267 307 6,800 -1,200 Descending Tampa TRACON
Mon 11:24:18 28.4333 -82.6833 246° West 260 299 6,000 -1,100 Descending Tampa TRACON
Mon 11:25:18 28.4000 -82.7500 240° Southwest 262 302 4,600 -1,526 Descending Tampa TRACON
Mon 11:26:12 28.3333 -82.8000 213° Southwest 262 302 3,100 -800 Descending Tampa TRACON
Mon 11:27:18 28.2667 -82.8000 180° South 277 319 3,000 -45 Descending Tampa TRACON
Mon 11:28:24 28.1833 -82.8000 180° South 270 311 3,000  Level Tampa TRACON
Mon 11:29:12 28.1167 -82.8000 180° South 266 306 3,000  Level Tampa TRACON
Mon 11:30:12 28.0500 -82.7833 168° South 274 315 3,000  Level Tampa TRACON
Mon 11:31:12 27.9667 -82.7833 180° South 273 314 3,000  Level Tampa TRACON
Mon 11:32:13 27.8833 -82.7667 170° South 272 313 3,000  Level Tampa TRACON
Mon 11:33:18 27.8167 -82.7667 180° South 272 313 3,000 -240 Level Tampa TRACON
Mon 11:34:18 27.7333 -82.7500 170° South 258 297 2,500 -522 Descending Tampa TRACON
Mon 11:35:13 27.6833 -82.7333 164° South 233 268 2,000 -261 Descending Tampa TRACON
Mon 11:36:13 27.7167 -82.6833 53° Northeast 215 247 2,000  Level Tampa TRACON
Mon 11:37:13 27.7667 -82.6667 16° North 207 238 2,000 -263 Level Tampa TRACON
Mon 11:38:07 27.8167 -82.6667 360° North 184 212 1,500 -600 Descending Tampa TRACON
Mon 11:39:13 27.8667 -82.6833 344° North 125 144 800 -636 Descending Tampa TRACON

Login

Don't have an account? Register now (free) for customized features, flight alerts, and more!